This demonstration page uses our WeatherBlox Daily Observations layout. Learn more.

Left ArrowRight Arrow

39.01783, -85.05884

Hourly Observations for June 19, 2018

Temp ( °F °C ) Dew Point ( °F °C ) Humidity (%) Winds ( mph kmh ) Pressure ( in mb ) Visibility ( mi km ) Precip ( " mm )
12:52 am 00:52 Clear 80 26.7 71 21.7 74 74 WSW 6 9 29.99 1016 10 16 N/A
1:52 am 01:52 Clear 79 26.1 72 22.2 79 79 WSW 6 9 29.98 1015 10 16 N/A
2:52 am 02:52 Clear 78 25.6 71 21.7 79 79 SW 6 9 29.97 1015 10 16 N/A
3:52 am 03:52 Clear 77 25 71 21.7 82 82 SW 7 11 29.96 1015 10 16 N/A
4:52 am 04:52 Clear 77 25 71 21.7 82 82 WSW 6 9 29.96 1014 10 16 N/A
5:52 am 05:52 Mostly Clear 76 24.4 71 21.7 85 85 SW 6 9 29.97 1015 10 16 N/A
6:52 am 06:52 Mostly Sunny 76 24.4 71 21.7 85 85 SW 5 7 29.98 1015 8 13 N/A
7:52 am 07:52 Partly Cloudy 78 25.6 70 21.1 76 76 W 7 11 29.98 1015 9 14 N/A
8:52 am 08:52 Partly Cloudy 80 26.7 71 21.7 74 74 W 9 15 29.98 1015 10 16 N/A
9:52 am 09:52 Mostly Sunny 82 27.8 71 21.7 69 69 WSW 8 13 29.98 1015 10 16 N/A
10:52 am 10:52 Partly Cloudy 86 30 72 22.2 63 63 W 10 17 29.97 1015 10 16 N/A
11:52 am 11:52 Partly Cloudy 89 31.7 72 22.2 57 57 W 12 19 29.96 1015 10 16 N/A
12:52 pm 12:52 Mostly Cloudy 89 31.7 72 22.2 57 57 W 10 17 29.96 1015 10 16 N/A
1:52 pm 13:52 Partly Cloudy 90 32.2 71 21.7 54 54 WSW 10 17 29.92 1013 10 16 N/A
2:52 pm 14:52 Partly Cloudy 92 33.3 70 21.1 49 49 W 16 26 29.89 1012 10 16 N/A
3:52 pm 15:52 Partly Cloudy 92 33.3 69 20.6 47 47 W 15 24 29.88 1012 10 16 N/A
4:52 pm 16:52 Partly Cloudy 93 33.9 68 20 44 44 W 16 26 29.88 1012 10 16 N/A
5:52 pm 17:52 Partly Cloudy 92 33.3 67 19.4 44 44 W 15 24 29.88 1012 10 16 N/A
6:52 pm 18:52 Mostly Sunny 90 32.2 69 20.6 50 50 W 10 17 29.87 1012 10 16 N/A
7:52 pm 19:52 Mostly Sunny 88 31.1 69 20.6 54 54 W 10 17 29.88 1012 10 16 N/A
8:22 pm 20:22 Mostly Cloudy 83 28.3 69 20.6 63 63 N 15 24 29.88 1012 10 16 N/A
8:52 pm 20:52 Partly Cloudy 81 27.2 68 20 65 65 N 10 17 29.89 1012 10 16 N/A
9:52 pm 21:52 Partly Cloudy 79 26.1 68 20 69 69 N 5 7 29.90 1013 10 16 N/A
10:52 pm 22:52 Mostly Cloudy 78 25.6 70 21.1 76 76 ENE 6 9 29.91 1013 10 16 N/A
11:52 pm 23:52 Mostly Cloudy 77 25 69 20.6 77 77 E 5 7 29.91 1013 10 16 N/A

Powered by AerisWeather